Date_and_time,latitude,longitude,wind_speed,RelWindDirFrom,WindDirFrom,air_pressure,air_temperature,relative_humidity,Temp,platform_speed_wrt_ground,air_pressure_at_mean_sea_level,platform_orientation
2018-04-30 00:00,50.630445,-96.9807566666667,17.9,24.6,160,974.94,14.8,41,5.06,0.0,1000.77,270.0
2018-04-30 00:10,50.630445,-96.9807566666667,18.4,21.5,157,974.85,13.8,44,5.06,0.0,1000.73,270.0
2018-04-30 00:20,50.6304516666667,-96.9807683333333,18.1,23.5,161,974.73,13.4,45,5.08,0.0,1000.64,270.0
2018-04-30 00:30,50.6304516666667,-96.980765,18.4,24.0,162,974.62,13.0,47,5.10,0.0,1000.56,270.0
2018-04-30 00:40,50.6304483333333,-96.9807583333333,18.9,26.6,166,974.59,13.1,46,5.15,0.0,1000.51,270.0
2018-04-30 00:50,50.6304466666667,-96.980755,19.0,24.8,166,974.67,14.0,45,5.20,0.0,1000.56,270.0
2018-04-30 01:00,50.6304483333333,-96.9807533333333,18.1,24.4,165,974.68,13.6,46,5.22,0.0,1000.61,347.4
2018-04-30 01:10,50.6304133333333,-96.9807566666667,17.9,22.8,164,974.70,13.5,46,5.21,0.0,1000.71,347.4
2018-04-30 01:20,50.630445,-96.9807466666667,16.7,20.6,166,974.76,12.0,50,5.21,0.0,1000.85,347.4
2018-04-30 01:30,50.6304483333333,-96.9807533333333,17.0,23.9,164,974.76,12.4,49,5.20,0.0,1000.83,347.4
2018-04-30 01:40,50.6304483333333,-96.98076,15.4,18.4,162,974.84,10.3,55,5.18,0.0,1001.01,347.4
2018-04-30 01:50,50.6304466666667,-96.9807616666667,14.3,17.1,160,974.87,9.7,57,5.18,0.0,1001.17,347.4
2018-04-30 02:00,50.6304466666667,-96.98076,14.3,16.9,161,974.87,10.2,56,5.18,0.0,1001.19,270.0
2018-04-30 02:10,50.6304366666667,-96.980765,14.6,17.6,164,974.96,11.0,54,5.18,0.0,1001.26,270.0
2018-04-30 02:20,50.6304416666667,-96.98076,14.5,16.7,161,975.02,10.5,56,5.17,0.0,1001.38,270.0
2018-04-30 02:30,50.6304433333333,-96.980755,13.0,15.7,161,975.07,8.7,62,5.15,0.0,1001.50,270.0
2018-04-30 02:40,50.6304466666667,-96.9807566666667,11.3,14.4,159,975.15,7.6,66,5.13,0.0,1001.59,270.0
2018-04-30 02:50,50.6304466666667,-96.9807583333333,10.7,15.7,163,975.10,6.6,70,5.10,0.0,1001.61,270.0
2018-04-30 03:00,50.6304416666667,-96.9807283333333,13.1,16.6,168,975.06,7.2,69,5.06,0.0,1001.54,90.0
2018-04-30 03:10,50.630465,-96.9807766666667,11.2,13.3,165,974.99,7.0,72,5.00,0.0,1001.55,90.0
2018-04-30 03:20,50.6304516666667,-96.98075,11.7,14.7,163,974.98,7.0,73,4.94,0.0,1001.53,90.0
2018-04-30 03:30,50.6304466666667,-96.980745,11.5,14.5,163,974.95,6.9,74,4.88,0.0,1001.60,90.0
2018-04-30 03:40,50.6304466666667,-96.9807583333333,11.9,14.7,167,974.95,6.7,75,4.86,0.0,1001.64,90.0
2018-04-30 03:50,50.6304433333333,-96.9807566666667,12.6,15.7,166,974.85,6.8,75,4.81,0.0,1001.50,90.0
2018-04-30 04:00,50.63045,-96.9807616666667,13.5,16.8,163,974.83,6.6,75,4.76,0.0,1001.45,347.4
2018-04-30 04:10,50.6304266666667,-96.9807683333333,12.8,15.5,161,974.81,6.5,75,4.73,0.0,1001.47,347.4
2018-04-30 04:20,50.63044,-96.980745,14.3,16.4,159,974.67,7.2,71,4.67,0.0,1001.37,347.4
2018-04-30 04:30,50.6304383333333,-96.9807533333333,13.8,15.9,159,974.65,7.4,71,4.64,0.0,1001.40,347.4
2018-04-30 04:40,50.6304516666667,-96.9807516666667,13.8,16.5,159,974.64,7.6,69,4.64,0.0,1001.43,347.4
2018-04-30 04:50,50.630445,-96.9807583333333,14.2,17.4,161,974.62,7.8,68,4.65,0.0,1001.36,347.4
2018-04-30 05:00,50.6304466666667,-96.9807583333333,13.5,15.7,160,974.57,7.9,68,4.70,0.0,1001.32,0.0
2018-04-30 05:10,50.6304466666667,-96.98076,14.2,16.8,159,974.45,7.8,68,4.72,0.0,1001.20,0.0
2018-04-30 05:20,50.6304466666667,-96.9807616666667,15.5,18.5,157,974.30,7.7,67,4.69,0.0,1001.05,0.0
2018-04-30 05:30,50.63044,-96.9807566666667,15.0,16.5,156,974.14,7.5,68,4.69,0.0,1000.91,0.0
2018-04-30 05:40,50.6304516666667,-96.98076,14.7,17.9,156,974.06,7.8,67,4.66,0.0,1000.82,0.0
2018-04-30 05:50,50.6304483333333,-96.9807483333333,13.4,15.5,158,974.08,7.4,69,4.64,0.0,1000.86,0.0
2018-04-30 06:00,50.630445,-96.98077,11.4,14.7,158,974.08,6.9,72,4.64,0.0,1000.89,270.0
2018-04-30 06:10,50.6304433333333,-96.9807633333333,11.0,14.3,160,974.08,6.4,75,4.64,0.0,1000.89,270.0
2018-04-30 06:20,50.6304433333333,-96.98076,12.3,14.4,161,973.95,6.4,74,4.65,0.0,1000.73,270.0
2018-04-30 06:30,50.6304433333333,-96.9807583333333,12.5,15.3,159,973.76,6.4,73,4.64,0.0,1000.54,270.0
2018-04-30 06:40,50.6304333333333,-96.9807516666667,13.4,16.6,157,973.57,6.2,74,4.64,0.0,1000.34,270.0
2018-04-30 06:50,50.630425,-96.9807683333333,13.5,15.6,156,973.51,6.5,72,4.63,0.0,1000.26,270.0
2018-04-30 07:00,50.630435,-96.9807566666667,13.1,14.8,154,973.42,6.6,71,4.61,0.0,1000.17,360.0
2018-04-30 07:10,50.6304316666667,-96.98076,13.4,15.4,150,973.29,7.2,68,4.61,0.0,1000.01,360.0
2018-04-30 07:20,50.6304333333333,-96.9807616666667,13.9,15.8,153,973.21,7.5,66,4.62,0.0,999.91,360.0
2018-04-30 07:30,50.6304316666667,-96.98076,13.7,15.6,154,973.13,7.7,65,4.62,0.0,999.81,360.0
2018-04-30 07:40,50.6304316666667,-96.98074,12.4,18.5,165,973.07,9.7,57,4.64,0.0,999.67,360.0
2018-04-30 07:50,50.6304316666667,-96.9807483333333,11.9,14.7,160,973.01,10.3,55,4.65,0.0,999.61,360.0
2018-04-30 08:00,50.6304333333333,-96.98075,11.7,13.8,156,972.91,10.7,53,4.65,0.0,999.51,156.5
2018-04-30 08:10,50.6304333333333,-96.9807533333333,12.0,13.7,154,972.89,9.2,58,4.65,0.0,999.56,156.5
2018-04-30 08:20,50.6304133333333,-96.9807633333333,10.9,12.7,154,972.92,8.4,60,4.63,0.0,999.63,156.5
2018-04-30 08:30,50.63045,-96.98076,9.2,12.0,154,972.97,7.6,64,4.62,0.0,999.73,156.5
2018-04-30 08:40,50.6304383333333,-96.9807583333333,4.3,8.8,156,973.03,5.8,73,4.64,0.0,999.86,156.5
2018-04-30 08:50,50.63044,-96.9807616666667,3.0,6.2,130,973.06,5.8,75,4.65,0.0,999.89,156.5
2018-04-30 09:00,50.6304416666667,-96.9807616666667,4.4,7.3,114,972.66,5.4,79,4.66,0.0,999.47,90.0
2018-04-30 09:10,50.6304416666667,-96.98076,4.3,7.6,126,972.33,4.7,84,4.67,0.0,999.15,90.0
2018-04-30 09:20,50.6304416666667,-96.9807566666667,3.8,7.0,150,972.10,4.8,82,4.68,0.0,998.90,90.0
2018-04-30 09:30,50.63044,-96.9807566666667,5.9,8.6,157,972.13,4.7,82,4.69,0.0,998.84,90.0
2018-04-30 09:40,50.6304416666667,-96.980755,6.0,8.7,148,971.94,5.1,81,4.69,0.0,998.60,90.0
2018-04-30 09:50,50.6304416666667,-96.980755,5.3,8.4,162,971.84,4.0,85,4.69,0.0,998.52,90.0
2018-04-30 10:00,50.6304416666667,-96.980755,8.9,11.6,159,971.67,5.2,79,4.70,0.0,998.37,38.0
2018-04-30 10:10,50.6304416666667,-96.980725,9.2,11.4,165,971.62,5.3,79,4.70,0.0,998.34,38.0
2018-04-30 10:20,50.63044,-96.9807533333333,9.6,10.9,170,971.55,5.1,80,4.71,0.0,998.33,38.0
2018-04-30 10:30,50.63044,-96.9807533333333,9.2,10.6,168,971.53,5.2,80,4.70,0.0,998.39,38.0
2018-04-30 10:40,50.63044,-96.9807516666667,6.6,8.9,174,971.87,5.4,79,4.69,0.0,998.72,38.0
2018-04-30 10:50,50.6304183333333,-96.98076,7.5,8.7,156,972.07,6.2,76,4.69,0.0,998.91,38.0
2018-04-30 11:00,50.630445,-96.98075,6.9,8.0,159,972.13,6.1,77,4.62,0.0,999.01,38.0
2018-04-30 11:10,50.630445,-96.980755,4.3,6.3,134,972.05,5.8,81,4.59,0.0,998.94,38.0
2018-04-30 11:20,50.630435,-96.980745,3.3,5.3,162,972.17,5.1,82,4.60,0.0,999.10,38.0
2018-04-30 11:30,50.63044,-96.9807466666667,5.6,7.5,161,972.25,6.2,78,4.59,0.0,999.11,38.0
2018-04-30 11:40,50.6304383333333,-96.9807466666667,6.7,8.5,164,972.32,5.9,79,4.60,0.0,999.25,38.0
2018-04-30 11:50,50.63044,-96.9807483333333,6.0,8.1,173,972.31,5.6,80,4.60,0.0,999.20,38.0
2018-04-30 12:00,50.63044,-96.98075,5.4,7.1,152,971.94,8.3,69,4.57,0.0,998.68,90.0
2018-04-30 12:10,50.63044,-96.9807516666667,4.2,6.9,142,971.82,7.2,76,4.56,0.0,998.62,90.0
2018-04-30 12:20,50.63044,-96.9807516666667,3.5,5.1,136,971.71,6.6,77,4.56,0.0,998.53,90.0
2018-04-30 12:30,50.6304383333333,-96.9807516666667,3.0,5.1,137,971.83,6.4,79,4.54,0.0,998.66,90.0
2018-04-30 12:40,50.63044,-96.9807533333333,2.5,5.0,142,971.87,6.7,77,4.53,0.0,998.64,90.0
2018-04-30 12:50,50.6304383333333,-96.9807533333333,2.2,3.8,87,972.03,6.0,81,4.53,0.0,998.84,90.0
2018-04-30 13:00,50.6304383333333,-96.9807533333333,1.9,3.5,110,972.17,5.1,85,4.52,0.0,999.05,90.0
2018-04-30 13:10,50.6304383333333,-96.9807533333333,1.4,3.6,81,972.32,5.3,84,4.50,0.0,999.23,90.0
2018-04-30 13:20,50.6304383333333,-96.9807533333333,1.9,4.3,122,972.31,5.4,84,4.48,0.0,999.16,90.0
2018-04-30 13:30,50.6304383333333,-96.9807533333333,2.4,3.5,66,972.33,5.4,85,4.47,0.0,999.19,90.0
2018-04-30 13:40,50.6304383333333,-96.9807533333333,2.6,3.8,82,972.35,5.0,87,4.46,0.0,999.25,90.0
2018-04-30 13:50,50.63044,-96.9807666666667,2.7,4.2,40,972.41,4.5,89,4.46,0.0,999.20,90.0
2018-04-30 14:00,50.6304433333333,-96.9807683333333,4.3,5.4,49,972.40,4.3,91,4.50,0.0,999.25,270.0
2018-04-30 14:10,50.6304383333333,-96.980765,6.4,9.5,27,972.42,3.8,93,4.50,0.0,999.33,270.0
2018-04-30 14:20,50.63044,-96.9807666666667,6.7,11.4,25,972.69,3.9,94,4.49,0.0,999.61,270.0
2018-04-30 14:30,50.63044,-96.9807666666667,5.6,6.9,30,972.86,3.9,94,4.50,0.0,999.77,270.0
2018-04-30 14:40,50.6304516666667,-96.9808,7.5,9.6,25,972.90,4.3,92,4.43,0.0,999.83,270.0
2018-04-30 14:50,50.6304416666667,-96.9807666666667,9.2,10.1,19,972.83,3.9,93,4.31,0.0,999.82,270.0
2018-04-30 15:00,50.63044,-96.9807666666667,8.4,10.2,18,972.73,3.1,97,4.22,0.0,999.74,270.0
2018-04-30 15:10,50.63045,-96.980775,7.1,9.0,10,973.01,3.3,96,4.10,0.0,1000.02,270.0
2018-04-30 15:20,50.6304416666667,-96.9807666666667,9.5,11.9,11,973.00,4.9,87,4.05,0.0,999.93,270.0
2018-04-30 15:30,50.6304416666667,-96.980765,11.6,13.0,9,972.87,4.9,87,4.05,0.0,999.82,270.0
2018-04-30 15:40,50.63044,-96.9807666666667,10.2,13.1,8,973.02,5.1,87,4.09,0.0,999.99,270.0
2018-04-30 15:50,50.6304366666667,-96.980765,8.4,10.1,10,973.18,5.7,86,4.14,0.0,1000.13,270.0
2018-04-30 16:00,50.6304333333333,-96.9807683333333,9.0,11.2,6,973.21,6.4,83,4.17,0.0,1000.16,216.6
2018-04-30 16:10,50.630435,-96.9807616666667,10.4,12.5,7,973.15,7.6,79,4.19,0.0,1000.03,216.6
2018-04-30 16:20,50.6304366666667,-96.9807566666667,10.8,12.2,7,973.12,7.8,78,4.26,0.0,999.99,216.6
2018-04-30 16:30,50.630435,-96.9807566666667,9.4,11.1,12,973.24,7.9,78,4.34,0.0,1000.09,216.6
2018-04-30 16:40,50.630435,-96.9807583333333,12.0,14.4,18,973.25,7.5,79,4.42,0.0,1000.13,216.6
2018-04-30 16:50,50.6304333333333,-96.9807583333333,11.9,13.6,20,973.16,6.6,83,4.45,0.0,1000.12,216.6
2018-04-30 17:00,50.630435,-96.9807583333333,11.4,12.9,23,973.21,5.8,87,4.52,0.0,1000.20,131.7
2018-04-30 17:10,50.630435,-96.9807583333333,11.1,12.5,23,973.31,5.8,87,4.62,0.0,1000.23,131.7
2018-04-30 17:20,50.6304433333333,-96.9807783333333,10.7,12.5,28,973.41,5.2,89,4.68,0.0,1000.36,131.7
2018-04-30 17:30,50.63044,-96.9807666666667,7.5,10.1,28,973.78,5.0,90,4.73,0.0,1000.74,131.7
2018-04-30 17:40,50.63044,-96.9807666666667,6.6,10.4,20,974.09,4.8,90,4.77,0.0,1001.03,131.7
2018-04-30 17:50,50.6304416666667,-96.980765,8.5,12.6,30,974.29,5.0,90,4.81,0.0,1001.21,131.7
2018-04-30 18:00,50.6304383333333,-96.9807633333333,8.5,12.1,19,974.57,4.7,92,4.86,0.0,1001.45,0.0
2018-04-30 18:10,50.6304383333333,-96.9807616666667,11.4,14.0,20,974.75,5.2,89,4.92,0.0,1001.59,0.0
2018-04-30 18:20,50.6304383333333,-96.98076,10.9,15.5,26,974.94,5.5,88,5.01,0.0,1001.78,0.0
2018-04-30 18:30,50.6304383333333,-96.98076,5.7,16.6,348,975.16,6.1,83,5.06,0.0,1001.99,0.0
2018-04-30 18:40,50.6304366666667,-96.98076,14.6,20.7,298,974.93,11.0,60,5.10,0.0,1001.56,0.0
2018-04-30 18:50,50.6304366666667,-96.9807583333333,15.0,23.6,299,975.24,11.0,60,5.12,0.0,1001.92,0.0
2018-04-30 19:00,50.63042,-96.9807283333333,14.8,23.8,305,975.50,10.1,62,5.07,0.0,1002.23,116.7
2018-04-30 19:10,50.6304216666667,-96.980735,15.3,21.3,305,975.61,9.4,65,5.00,0.0,1002.41,116.7
2018-04-30 19:20,50.630425,-96.9807416666667,15.6,23.6,313,975.76,8.7,67,4.92,0.0,1002.60,116.7
2018-04-30 19:30,50.630425,-96.9807483333333,16.0,22.8,304,976.09,8.2,69,4.91,0.0,1002.97,116.7
2018-04-30 19:40,50.6304266666667,-96.9807483333333,14.4,22.0,314,976.44,8.3,69,4.93,0.0,1003.32,116.7
2018-04-30 19:50,50.6304266666667,-96.9807516666667,15.0,21.8,308,976.70,8.2,69,4.91,0.0,1003.60,116.7
2018-04-30 20:00,50.6304283333333,-96.9807516666667,13.7,23.6,303,976.88,7.8,70,4.88,0.0,1003.79,165.5
2018-04-30 20:10,50.6304283333333,-96.9807516666667,16.9,24.2,318,976.71,7.7,71,4.90,0.0,1003.60,165.5
2018-04-30 20:20,50.63043,-96.980745,17.7,25.1,328,976.81,6.9,74,4.89,0.0,1003.72,165.5
2018-04-30 20:30,50.6304266666667,-96.980745,14.0,23.4,311,977.11,7.0,72,4.86,0.0,1003.78,165.5
2018-04-30 20:40,50.6304266666667,-96.9807333333333,16.4,27.0,319,977.16,6.6,73,4.86,0.0,1003.85,165.5
2018-04-30 20:50,50.6304283333333,-96.980745,17.6,27.5,313,977.25,6.0,75,4.86,0.0,1004.02,165.5
2018-04-30 21:00,50.6304283333333,-96.9807466666667,17.7,26.1,322,977.33,5.5,77,4.89,0.0,1004.16,148.9
2018-04-30 21:10,50.6304266666667,-96.9807483333333,17.2,27.6,320,977.42,5.3,77,4.92,0.0,1004.29,148.9
2018-04-30 21:20,50.63043,-96.98075,16.6,27.5,326,977.61,5.1,78,4.88,0.0,1004.52,148.9
2018-04-30 21:30,50.6304316666667,-96.9807516666667,16.9,26.6,331,978.05,4.7,80,4.84,0.0,1004.99,148.9
2018-04-30 21:40,50.6304316666667,-96.9807516666667,16.6,24.3,326,978.22,4.4,81,4.83,0.0,1005.18,148.9
2018-04-30 21:50,50.6304333333333,-96.9807516666667,16.4,25.5,335,978.34,4.2,83,4.84,0.0,1005.34,148.9
2018-04-30 22:00,50.6304333333333,-96.9807516666667,17.6,26.7,340,978.35,3.9,84,4.84,0.0,1005.37,310.6
2018-04-30 22:10,50.6304333333333,-96.9807516666667,17.7,24.7,337,978.28,3.6,86,4.85,0.0,1005.34,310.6
2018-04-30 22:20,50.6304333333333,-96.9807533333333,19.1,25.5,344,978.50,3.4,87,4.86,0.0,1005.58,310.6
2018-04-30 22:30,50.6304433333333,-96.9807616666667,15.7,22.8,338,978.94,3.2,88,4.84,0.0,1006.06,310.6
2018-04-30 22:40,50.6304166666667,-96.9807666666667,15.6,21.8,352,979.32,3.1,89,4.84,0.0,1006.48,310.6
2018-04-30 22:50,50.6304333333333,-96.980755,14.3,21.4,347,979.49,3.0,90,4.86,0.0,1006.69,310.6
2018-04-30 23:00,50.630415,-96.9807416666667,13.5,18.4,355,979.69,2.9,91,4.83,0.0,1006.91,165.5
2018-04-30 23:10,50.6304266666667,-96.9807416666667,12.3,16.8,348,979.73,3.0,90,4.83,0.0,1006.95,165.5
2018-04-30 23:20,50.6304316666667,-96.9807516666667,12.9,16.8,355,979.89,3.0,91,4.81,0.0,1007.14,165.5
2018-04-30 23:30,50.6304316666667,-96.980755,13.9,19.5,345,979.88,3.1,90,4.79,0.0,1007.14,165.5
2018-04-30 23:40,50.6304316666667,-96.980755,15.6,22.2,342,979.81,3.1,90,4.74,0.0,1007.08,165.5
